Location: Zilina
(0.0000°N, 18.7333°E)
Time: 23:58:18
(UTC+01:00)

Cosmos 2084 Rocket - Pass Details

Date: 19 February 2019
Orbit: 553 x 629 km, 62.8° (Epoch: 25 March)

Event Time Altitude Azimuth Distance (km) Brightness Sun altitude
Rises 18:24:14 0° 357° (N) 2,718 6.8 -6.2°
Reaches altitude 10° 18:26:46 10° 12° (NNE) 1,822 5.7 -6.8°
Maximum altitude 18:30:05 24° 66° (ENE) 1,170 4.4 -7.6°
Drops below altitude 10° 18:33:24 10° 120° (ESE) 1,826 5.5 -8.5°
Sets 18:35:56 0° 134° (SE) 2,726 6.5 -9.1°
